Year,Month,Day,Hour,Minute,Value (Times are PST for temperature in C)
2013,08,17,00,00,9.90
2013,08,17,00,04,9.90
2013,08,17,00,05,9.90
2013,08,17,00,06,9.90
2013,08,17,00,07,9.90
2013,08,17,00,08,9.90
2013,08,17,00,09,9.90
2013,08,17,00,10,9.90
2013,08,17,00,11,9.90
2013,08,17,00,12,9.90
2013,08,17,00,13,9.90
2013,08,17,00,14,9.90
2013,08,17,00,15,9.90
2013,08,17,00,19,9.80
2013,08,17,00,20,9.80
2013,08,17,00,21,9.80
2013,08,17,00,22,9.80
2013,08,17,00,23,9.80
2013,08,17,00,24,9.80
2013,08,17,00,25,9.80
2013,08,17,00,26,9.80
2013,08,17,00,27,9.80
2013,08,17,00,28,9.80
2013,08,17,00,29,9.80
2013,08,17,00,30,9.80
2013,08,17,00,34,9.80
2013,08,17,00,35,9.80
2013,08,17,00,36,9.80
2013,08,17,00,37,9.80
2013,08,17,00,38,9.80
2013,08,17,00,39,9.80
2013,08,17,00,40,9.80
2013,08,17,00,41,9.80
2013,08,17,00,42,9.80
2013,08,17,00,43,9.80
2013,08,17,00,44,9.80
2013,08,17,00,45,9.80
2013,08,17,00,49,9.80
2013,08,17,00,50,9.80
2013,08,17,00,51,9.80
2013,08,17,00,52,9.80
2013,08,17,00,53,9.80
2013,08,17,00,54,9.80
2013,08,17,00,55,9.80
2013,08,17,00,56,9.80
2013,08,17,00,57,9.80
2013,08,17,00,58,9.80
2013,08,17,00,59,9.80
2013,08,17,01,00,9.80
2013,08,17,01,04,9.80
2013,08,17,01,05,9.80
2013,08,17,01,06,9.80
2013,08,17,01,07,9.80
2013,08,17,01,08,9.80
2013,08,17,01,09,9.80
2013,08,17,01,10,9.80
2013,08,17,01,11,9.80
2013,08,17,01,12,9.80
2013,08,17,01,13,9.80
2013,08,17,01,14,9.80
2013,08,17,01,15,9.80
2013,08,17,01,19,9.80
2013,08,17,01,20,9.80
2013,08,17,01,21,9.80
2013,08,17,01,22,9.80
2013,08,17,01,23,9.80
2013,08,17,01,24,9.80
2013,08,17,01,25,9.80
2013,08,17,01,26,9.80
2013,08,17,01,27,9.80
2013,08,17,01,28,9.80
2013,08,17,01,29,9.80
2013,08,17,01,30,9.80
2013,08,17,01,34,9.80
2013,08,17,01,35,9.80
2013,08,17,01,36,9.80
2013,08,17,01,37,9.80
2013,08,17,01,38,9.80
2013,08,17,01,39,9.80
2013,08,17,01,40,9.80
2013,08,17,01,41,9.80
2013,08,17,01,42,9.80
2013,08,17,01,43,9.80
2013,08,17,01,44,9.80
2013,08,17,01,45,9.80
2013,08,17,01,49,9.70
2013,08,17,01,50,9.70
2013,08,17,01,51,9.70
2013,08,17,01,52,9.70
2013,08,17,01,53,9.70
2013,08,17,01,54,9.70
2013,08,17,01,55,9.70
2013,08,17,01,56,9.70
2013,08,17,01,57,9.70
2013,08,17,01,58,9.70
2013,08,17,01,59,9.70
2013,08,17,02,00,9.70
2013,08,17,02,04,9.70
2013,08,17,02,05,9.70
2013,08,17,02,06,9.70
2013,08,17,02,07,9.70
2013,08,17,02,08,9.70
2013,08,17,02,09,9.70
2013,08,17,02,10,9.70
2013,08,17,02,11,9.70
2013,08,17,02,12,9.70
2013,08,17,02,13,9.70
2013,08,17,02,14,9.70
2013,08,17,02,15,9.70
2013,08,17,02,19,9.70
2013,08,17,02,20,9.70
2013,08,17,02,21,9.70
2013,08,17,02,22,9.70
2013,08,17,02,23,9.70
2013,08,17,02,24,9.70
2013,08,17,02,25,9.70
2013,08,17,02,26,9.70
2013,08,17,02,27,9.70
2013,08,17,02,28,9.70
2013,08,17,02,29,9.70
2013,08,17,02,30,9.70
2013,08,17,02,34,9.70
2013,08,17,02,35,9.70
2013,08,17,02,36,9.70
2013,08,17,02,37,9.70
2013,08,17,02,38,9.70
2013,08,17,02,39,9.70
2013,08,17,02,40,9.70
2013,08,17,02,41,9.70
2013,08,17,02,42,9.70
2013,08,17,02,43,9.70
2013,08,17,02,44,9.70
2013,08,17,02,45,9.70
2013,08,17,02,49,9.60
2013,08,17,02,50,9.60
2013,08,17,02,51,9.60
2013,08,17,02,52,9.60
2013,08,17,02,53,9.60
2013,08,17,02,54,9.60
2013,08,17,02,55,9.60
2013,08,17,02,56,9.60
2013,08,17,02,57,9.60
2013,08,17,02,58,9.60
2013,08,17,02,59,9.60
2013,08,17,03,00,9.60
2013,08,17,03,04,9.40
2013,08,17,03,05,9.40
2013,08,17,03,06,9.40
2013,08,17,03,07,9.40
2013,08,17,03,08,9.40
2013,08,17,03,09,9.40
2013,08,17,03,10,9.40
2013,08,17,03,11,9.40
2013,08,17,03,12,9.40
2013,08,17,03,13,9.40
2013,08,17,03,14,9.40
2013,08,17,03,15,9.40
2013,08,17,03,19,9.40
2013,08,17,03,20,9.40
2013,08,17,03,21,9.40
2013,08,17,03,22,9.40
2013,08,17,03,23,9.40
2013,08,17,03,24,9.40
2013,08,17,03,25,9.40
2013,08,17,03,26,9.40
2013,08,17,03,27,9.40
2013,08,17,03,28,9.40
2013,08,17,03,29,9.40
2013,08,17,03,30,9.40
2013,08,17,03,34,9.40
2013,08,17,03,35,9.40
2013,08,17,03,36,9.40
2013,08,17,03,37,9.40
2013,08,17,03,38,9.40
2013,08,17,03,39,9.40
2013,08,17,03,40,9.40
2013,08,17,03,41,9.40
2013,08,17,03,42,9.40
2013,08,17,03,43,9.40
2013,08,17,03,44,9.40
2013,08,17,03,45,9.40
2013,08,17,03,49,9.40
2013,08,17,03,50,9.40
2013,08,17,03,51,9.40
2013,08,17,03,52,9.40
2013,08,17,03,53,9.40
2013,08,17,03,54,9.40
2013,08,17,03,55,9.40
2013,08,17,03,56,9.40
2013,08,17,03,57,9.40
2013,08,17,03,58,9.40
2013,08,17,03,59,9.40
2013,08,17,04,00,9.40
2013,08,17,04,04,9.40
2013,08,17,04,05,9.40
2013,08,17,04,06,9.40
2013,08,17,04,07,9.40
2013,08,17,04,08,9.40
2013,08,17,04,09,9.40
2013,08,17,04,10,9.40
2013,08,17,04,11,9.40
2013,08,17,04,12,9.40
2013,08,17,04,13,9.40
2013,08,17,04,14,9.40
2013,08,17,04,15,9.40
2013,08,17,04,19,9.40
2013,08,17,04,20,9.40
2013,08,17,04,21,9.40
2013,08,17,04,22,9.40
2013,08,17,04,23,9.40
2013,08,17,04,24,9.40
2013,08,17,04,25,9.40
2013,08,17,04,26,9.40
2013,08,17,04,27,9.40
2013,08,17,04,28,9.40
2013,08,17,04,29,9.40
2013,08,17,04,30,9.40
2013,08,17,04,34,9.40
2013,08,17,04,35,9.40
2013,08,17,04,36,9.40
2013,08,17,04,37,9.40
2013,08,17,04,38,9.40
2013,08,17,04,39,9.40
2013,08,17,04,40,9.40
2013,08,17,04,41,9.40
2013,08,17,04,42,9.40
2013,08,17,04,43,9.40
2013,08,17,04,44,9.40
2013,08,17,04,45,9.40
2013,08,17,04,49,9.30
2013,08,17,04,50,9.30
2013,08,17,04,51,9.30
2013,08,17,04,52,9.30
2013,08,17,04,53,9.30
2013,08,17,04,54,9.30
2013,08,17,04,55,9.30
2013,08,17,04,56,9.30
2013,08,17,04,57,9.30
2013,08,17,04,58,9.30
2013,08,17,04,59,9.30
2013,08,17,05,00,9.30
2013,08,17,05,04,9.30
2013,08,17,05,05,9.30
2013,08,17,05,06,9.30
2013,08,17,05,07,9.30
2013,08,17,05,08,9.30
2013,08,17,05,09,9.30
2013,08,17,05,10,9.30
2013,08,17,05,11,9.30
2013,08,17,05,12,9.30
2013,08,17,05,13,9.30
2013,08,17,05,14,9.30
2013,08,17,05,15,9.30
2013,08,17,05,19,9.30
2013,08,17,05,20,9.30
2013,08,17,05,21,9.30
2013,08,17,05,22,9.30
2013,08,17,05,23,9.30
2013,08,17,05,24,9.30
2013,08,17,05,25,9.30
2013,08,17,05,26,9.30
2013,08,17,05,27,9.30
2013,08,17,05,28,9.30
2013,08,17,05,29,9.30
2013,08,17,05,30,9.30
2013,08,17,05,34,9.30
2013,08,17,05,35,9.30
2013,08,17,05,36,9.30
2013,08,17,05,37,9.30
2013,08,17,05,38,9.30
2013,08,17,05,39,9.30
2013,08,17,05,40,9.30
2013,08,17,05,41,9.30
2013,08,17,05,42,9.30
2013,08,17,05,43,9.30
2013,08,17,05,44,9.30
2013,08,17,05,45,9.30
2013,08,17,05,49,9.20
2013,08,17,05,50,9.20
2013,08,17,05,51,9.20
2013,08,17,05,52,9.20
2013,08,17,05,53,9.20
2013,08,17,05,54,9.20
2013,08,17,05,55,9.20
2013,08,17,05,56,9.20
2013,08,17,05,57,9.20
2013,08,17,05,58,9.20
2013,08,17,05,59,9.20
2013,08,17,06,00,9.20
2013,08,17,06,04,9.20
2013,08,17,06,05,9.20
2013,08,17,06,06,9.20
2013,08,17,06,07,9.20
2013,08,17,06,08,9.20
2013,08,17,06,09,9.20
2013,08,17,06,10,9.20
2013,08,17,06,11,9.20
2013,08,17,06,12,9.20
2013,08,17,06,13,9.20
2013,08,17,06,14,9.20
2013,08,17,06,15,9.20
2013,08,17,06,19,9.20
2013,08,17,06,20,9.20
2013,08,17,06,21,9.20
2013,08,17,06,22,9.20
2013,08,17,06,23,9.20
2013,08,17,06,24,9.20
2013,08,17,06,25,9.20
2013,08,17,06,26,9.20
2013,08,17,06,27,9.20
2013,08,17,06,28,9.20
2013,08,17,06,29,9.20
2013,08,17,06,30,9.20
2013,08,17,06,34,9.10
2013,08,17,06,35,9.10
2013,08,17,06,36,9.10
2013,08,17,06,37,9.10
2013,08,17,06,38,9.10
2013,08,17,06,39,9.10
2013,08,17,06,40,9.10
2013,08,17,06,41,9.10
2013,08,17,06,42,9.10
2013,08,17,06,43,9.10
2013,08,17,06,44,9.10
2013,08,17,06,45,9.10
2013,08,17,06,49,9.00
2013,08,17,06,50,9.00
2013,08,17,06,51,9.00
2013,08,17,06,52,9.00
2013,08,17,06,53,9.00
2013,08,17,06,54,9.00
2013,08,17,06,55,9.00
2013,08,17,06,56,9.00
2013,08,17,06,57,9.00
2013,08,17,06,58,9.00
2013,08,17,06,59,9.00
2013,08,17,07,00,9.00
2013,08,17,07,04,9.10
2013,08,17,07,05,9.10
2013,08,17,07,06,9.10
2013,08,17,07,07,9.10
2013,08,17,07,08,9.10
2013,08,17,07,09,9.10
2013,08,17,07,10,9.10
2013,08,17,07,11,9.10
2013,08,17,07,12,9.10
2013,08,17,07,13,9.10
2013,08,17,07,14,9.10
2013,08,17,07,15,9.10
2013,08,17,07,19,9.20
2013,08,17,07,20,9.20
2013,08,17,07,21,9.20
2013,08,17,07,22,9.20
2013,08,17,07,23,9.20
2013,08,17,07,24,9.20
2013,08,17,07,25,9.20
2013,08,17,07,26,9.20
2013,08,17,07,27,9.20
2013,08,17,07,28,9.20
2013,08,17,07,29,9.20
2013,08,17,07,30,9.20
2013,08,17,07,34,9.20
2013,08,17,07,35,9.20
2013,08,17,07,36,9.20
2013,08,17,07,37,9.20
2013,08,17,07,38,9.20
2013,08,17,07,39,9.20
2013,08,17,07,40,9.20
2013,08,17,07,41,9.20
2013,08,17,07,42,9.20
2013,08,17,07,43,9.20
2013,08,17,07,44,9.20
2013,08,17,07,45,9.20
2013,08,17,07,49,9.30
2013,08,17,07,50,9.30
2013,08,17,07,51,9.30
2013,08,17,07,52,9.30
2013,08,17,07,53,9.30
2013,08,17,07,54,9.30
2013,08,17,07,55,9.30
2013,08,17,07,56,9.30
2013,08,17,07,57,9.30
2013,08,17,07,58,9.30
2013,08,17,07,59,9.30
2013,08,17,08,00,9.30
2013,08,17,08,04,9.60
2013,08,17,08,05,9.60
2013,08,17,08,06,9.60
2013,08,17,08,07,9.60
2013,08,17,08,08,9.60
2013,08,17,08,09,9.60
2013,08,17,08,10,9.60
2013,08,17,08,11,9.60
2013,08,17,08,12,9.60
2013,08,17,08,13,9.60
2013,08,17,08,14,9.60
2013,08,17,08,15,9.60
2013,08,17,08,19,9.70
2013,08,17,08,20,9.70
2013,08,17,08,21,9.70
2013,08,17,08,22,9.70
2013,08,17,08,23,9.70
2013,08,17,08,24,9.70
2013,08,17,08,25,9.70
2013,08,17,08,26,9.70
2013,08,17,08,27,9.70
2013,08,17,08,28,9.70
2013,08,17,08,29,9.70
2013,08,17,08,30,9.70
2013,08,17,08,34,10.20
2013,08,17,08,35,10.20
2013,08,17,08,36,10.20
2013,08,17,08,37,10.20
2013,08,17,08,38,10.20
2013,08,17,08,39,10.20
2013,08,17,08,40,10.20
2013,08,17,08,41,10.20
2013,08,17,08,42,10.20
2013,08,17,08,43,10.20
2013,08,17,08,44,10.20
2013,08,17,08,45,10.20
2013,08,17,08,49,10.30
2013,08,17,08,50,10.30
2013,08,17,08,51,10.30
2013,08,17,08,52,10.30
2013,08,17,08,53,10.30
2013,08,17,08,54,10.30
2013,08,17,08,55,10.30
2013,08,17,08,56,10.30
2013,08,17,08,57,10.30
2013,08,17,08,58,10.30
2013,08,17,08,59,10.30
2013,08,17,09,00,10.30
2013,08,17,09,04,10.20
2013,08,17,09,05,10.20
2013,08,17,09,06,10.20
2013,08,17,09,07,10.20
2013,08,17,09,08,10.20
2013,08,17,09,09,10.20
2013,08,17,09,10,10.20
2013,08,17,09,11,10.20
2013,08,17,09,12,10.20
2013,08,17,09,13,10.20
2013,08,17,09,14,10.20
2013,08,17,09,15,10.20
2013,08,17,09,19,10.00
2013,08,17,09,20,10.00
2013,08,17,09,21,10.00
2013,08,17,09,22,10.00
2013,08,17,09,23,10.00
2013,08,17,09,24,10.00
2013,08,17,09,25,10.00
2013,08,17,09,26,10.00
2013,08,17,09,27,10.00
2013,08,17,09,28,10.00
2013,08,17,09,29,10.00
2013,08,17,09,30,10.00
2013,08,17,09,34,10.20
2013,08,17,09,35,10.20
2013,08,17,09,36,10.20
2013,08,17,09,37,10.20
2013,08,17,09,38,10.20
2013,08,17,09,39,10.20
2013,08,17,09,40,10.20
2013,08,17,09,41,10.20
2013,08,17,09,42,10.20
2013,08,17,09,43,10.20
2013,08,17,09,44,10.20
2013,08,17,09,45,10.20
2013,08,17,09,49,10.20
2013,08,17,09,50,10.20
2013,08,17,09,51,10.20
2013,08,17,09,52,10.20
2013,08,17,09,53,10.20
2013,08,17,09,54,10.20
2013,08,17,09,55,10.20
2013,08,17,09,56,10.20
2013,08,17,09,57,10.20
2013,08,17,09,58,10.20
2013,08,17,09,59,10.20
2013,08,17,10,00,10.20
2013,08,17,10,04,10.50
2013,08,17,10,05,10.50
2013,08,17,10,06,10.50
2013,08,17,10,07,10.50
2013,08,17,10,08,10.50
2013,08,17,10,09,10.50
2013,08,17,10,10,10.50
2013,08,17,10,11,10.50
2013,08,17,10,12,10.50
2013,08,17,10,13,10.50
2013,08,17,10,14,10.50
2013,08,17,10,15,10.50
2013,08,17,10,19,10.20
2013,08,17,10,20,10.20
2013,08,17,10,21,10.20
2013,08,17,10,22,10.20
2013,08,17,10,23,10.20
2013,08,17,10,24,10.20
2013,08,17,10,25,10.20
2013,08,17,10,26,10.20
2013,08,17,10,27,10.20
2013,08,17,10,28,10.20
2013,08,17,10,29,10.20
2013,08,17,10,30,10.20
2013,08,17,10,34,10.80
2013,08,17,10,35,10.80
2013,08,17,10,36,10.80
2013,08,17,10,37,10.80
2013,08,17,10,38,10.80
2013,08,17,10,39,10.80
2013,08,17,10,40,10.80
2013,08,17,10,41,10.80
2013,08,17,10,42,10.80
2013,08,17,10,43,10.80
2013,08,17,10,44,10.80
2013,08,17,10,45,10.80
2013,08,17,10,49,11.40
2013,08,17,10,50,11.40
2013,08,17,10,51,11.40
2013,08,17,10,52,11.40
2013,08,17,10,53,11.40
2013,08,17,10,54,11.40
2013,08,17,10,55,11.40
2013,08,17,10,56,11.40
2013,08,17,10,57,11.40
2013,08,17,10,58,11.40
2013,08,17,10,59,11.40
2013,08,17,11,00,11.40
2013,08,17,11,04,11.40
2013,08,17,11,05,11.40
2013,08,17,11,06,11.40
2013,08,17,11,07,11.40
2013,08,17,11,08,11.40
2013,08,17,11,09,11.40
2013,08,17,11,10,11.40
2013,08,17,11,11,11.40
2013,08,17,11,12,11.40
2013,08,17,11,13,11.40
2013,08,17,11,14,11.40
2013,08,17,11,15,11.40
2013,08,17,11,19,11.70
2013,08,17,11,20,11.70
2013,08,17,11,21,11.70
2013,08,17,11,22,11.70
2013,08,17,11,23,11.70
2013,08,17,11,24,11.70
2013,08,17,11,25,11.70
2013,08,17,11,26,11.70
2013,08,17,11,27,11.70
2013,08,17,11,28,11.70
2013,08,17,11,29,11.70
2013,08,17,11,30,11.70
2013,08,17,11,34,11.60
2013,08,17,11,35,11.60
2013,08,17,11,36,11.60
2013,08,17,11,37,11.60
2013,08,17,11,38,11.60
2013,08,17,11,39,11.60
2013,08,17,11,40,11.60
2013,08,17,11,41,11.60
2013,08,17,11,42,11.60
2013,08,17,11,43,11.60
2013,08,17,11,44,11.60
2013,08,17,11,45,11.60
2013,08,17,11,49,11.40
2013,08,17,11,50,11.40
2013,08,17,11,51,11.40
2013,08,17,11,52,11.40
2013,08,17,11,53,11.40
2013,08,17,11,54,11.40
2013,08,17,11,55,11.40
2013,08,17,11,56,11.40
2013,08,17,11,57,11.40
2013,08,17,11,58,11.40
2013,08,17,11,59,11.40
2013,08,17,12,00,11.40
2013,08,17,12,04,12.10
2013,08,17,12,05,12.10
2013,08,17,12,06,12.10
2013,08,17,12,07,12.10
2013,08,17,12,08,12.10
2013,08,17,12,09,12.10
2013,08,17,12,10,12.10
2013,08,17,12,11,12.10
2013,08,17,12,12,12.10
2013,08,17,12,13,12.10
2013,08,17,12,14,12.10
2013,08,17,12,15,12.10
2013,08,17,12,19,11.80
2013,08,17,12,20,11.80
2013,08,17,12,21,11.80
2013,08,17,12,22,11.80
2013,08,17,12,23,11.80
2013,08,17,12,24,11.80
2013,08,17,12,25,11.80
2013,08,17,12,26,11.80
2013,08,17,12,27,11.80
2013,08,17,12,28,11.80
2013,08,17,12,29,11.80
2013,08,17,12,30,11.80
2013,08,17,12,34,12.20
2013,08,17,12,35,12.20
2013,08,17,12,36,12.20
2013,08,17,12,37,12.20
2013,08,17,12,38,12.20
2013,08,17,12,39,12.20
2013,08,17,12,40,12.20
2013,08,17,12,41,12.20
2013,08,17,12,42,12.20
2013,08,17,12,43,12.20
2013,08,17,12,44,12.20
2013,08,17,12,45,12.20
2013,08,17,12,49,12.30
2013,08,17,12,50,12.30
2013,08,17,12,51,12.30
2013,08,17,12,52,12.30
2013,08,17,12,53,12.30
2013,08,17,12,54,12.30
2013,08,17,12,55,12.30
2013,08,17,12,56,12.30
2013,08,17,12,57,12.30
2013,08,17,12,58,12.30
2013,08,17,12,59,12.30
2013,08,17,13,00,12.30
2013,08,17,13,04,12.10
2013,08,17,13,05,12.10
2013,08,17,13,06,12.10
2013,08,17,13,07,12.10
2013,08,17,13,08,12.10
2013,08,17,13,09,12.10
2013,08,17,13,10,12.10
2013,08,17,13,11,12.10
2013,08,17,13,12,12.10
2013,08,17,13,13,12.10
2013,08,17,13,14,12.10
2013,08,17,13,15,12.10
2013,08,17,13,19,11.70
2013,08,17,13,20,11.70
2013,08,17,13,21,11.70
2013,08,17,13,22,11.70
2013,08,17,13,23,11.70
2013,08,17,13,24,11.70
2013,08,17,13,25,11.70
2013,08,17,13,26,11.70
2013,08,17,13,27,11.70
2013,08,17,13,28,11.70
2013,08,17,13,29,11.70
2013,08,17,13,30,11.70
2013,08,17,13,34,11.50
2013,08,17,13,35,11.50
2013,08,17,13,36,11.50
2013,08,17,13,37,11.50
2013,08,17,13,38,11.50
2013,08,17,13,39,11.50
2013,08,17,13,40,11.50
2013,08,17,13,41,11.50
2013,08,17,13,42,11.50
2013,08,17,13,43,11.50
2013,08,17,13,44,11.50
2013,08,17,13,45,11.50
2013,08,17,13,49,12.20
2013,08,17,13,50,12.20
2013,08,17,13,51,12.20
2013,08,17,13,52,12.20
2013,08,17,13,53,12.20
2013,08,17,13,54,12.20
2013,08,17,13,55,12.20
2013,08,17,13,56,12.20
2013,08,17,13,57,12.20
2013,08,17,13,58,12.20
2013,08,17,13,59,12.20
2013,08,17,14,00,12.20
2013,08,17,14,04,12.70
2013,08,17,14,05,12.70
2013,08,17,14,06,12.70
2013,08,17,14,07,12.70
2013,08,17,14,08,12.70
2013,08,17,14,09,12.70
2013,08,17,14,10,12.70
2013,08,17,14,11,12.70
2013,08,17,14,12,12.70
2013,08,17,14,13,12.70
2013,08,17,14,14,12.70
2013,08,17,14,15,12.70
2013,08,17,14,19,13.30
2013,08,17,14,20,13.30
2013,08,17,14,21,13.30
2013,08,17,14,22,13.30
2013,08,17,14,23,13.30
2013,08,17,14,24,13.30
2013,08,17,14,25,13.30
2013,08,17,14,26,13.30
2013,08,17,14,27,13.30
2013,08,17,14,28,13.30
2013,08,17,14,29,13.30
2013,08,17,14,30,13.30
2013,08,17,14,34,13.40
2013,08,17,14,35,13.40
2013,08,17,14,36,13.40
2013,08,17,14,37,13.40
2013,08,17,14,38,13.40
2013,08,17,14,39,13.40
2013,08,17,14,40,13.40
2013,08,17,14,41,13.40
2013,08,17,14,42,13.40
2013,08,17,14,43,13.40
2013,08,17,14,44,13.40
2013,08,17,14,45,13.40
2013,08,17,14,49,13.10
2013,08,17,14,50,13.10
2013,08,17,14,51,13.10
2013,08,17,14,52,13.10
2013,08,17,14,53,13.10
2013,08,17,14,54,13.10
2013,08,17,14,55,13.10
2013,08,17,14,56,13.10
2013,08,17,14,57,13.10
2013,08,17,14,58,13.10
2013,08,17,14,59,13.10
2013,08,17,15,00,13.10
2013,08,17,15,04,13.10
2013,08,17,15,05,13.10
2013,08,17,15,06,13.10
2013,08,17,15,07,13.10
2013,08,17,15,08,13.10
2013,08,17,15,09,13.10
2013,08,17,15,10,13.10
2013,08,17,15,11,13.10
2013,08,17,15,12,13.10
2013,08,17,15,13,13.10
2013,08,17,15,14,13.10
2013,08,17,15,15,13.10
2013,08,17,15,19,13.00
2013,08,17,15,20,13.00
2013,08,17,15,21,13.00
2013,08,17,15,22,13.00
2013,08,17,15,23,13.00
2013,08,17,15,24,13.00
2013,08,17,15,25,13.00
2013,08,17,15,26,13.00
2013,08,17,15,27,13.00
2013,08,17,15,28,13.00
2013,08,17,15,29,13.00
2013,08,17,15,30,13.00
2013,08,17,15,34,13.20
2013,08,17,15,35,13.20
2013,08,17,15,36,13.20
2013,08,17,15,37,13.20
2013,08,17,15,38,13.20
2013,08,17,15,39,13.20
2013,08,17,15,40,13.20
2013,08,17,15,41,13.20
2013,08,17,15,42,13.20
2013,08,17,15,43,13.20
2013,08,17,15,44,13.20
2013,08,17,15,45,13.20
2013,08,17,15,49,13.20
2013,08,17,15,50,13.20
2013,08,17,15,51,13.20
2013,08,17,15,52,13.20
2013,08,17,15,53,13.20
2013,08,17,15,54,13.20
2013,08,17,15,55,13.20
2013,08,17,15,56,13.20
2013,08,17,15,57,13.20
2013,08,17,15,58,13.20
2013,08,17,15,59,13.20
2013,08,17,16,00,13.20
2013,08,17,16,04,12.80
2013,08,17,16,05,12.80
2013,08,17,16,06,12.80
2013,08,17,16,07,12.80
2013,08,17,16,08,12.80
2013,08,17,16,09,12.80
2013,08,17,16,10,12.80
2013,08,17,16,11,12.80
2013,08,17,16,12,12.80
2013,08,17,16,13,12.80
2013,08,17,16,14,12.80
2013,08,17,16,15,12.80
2013,08,17,16,19,12.40
2013,08,17,16,20,12.40
2013,08,17,16,21,12.40
2013,08,17,16,22,12.40
2013,08,17,16,23,12.40
2013,08,17,16,24,12.40
2013,08,17,16,25,12.40
2013,08,17,16,26,12.40
2013,08,17,16,27,12.40
2013,08,17,16,28,12.40
2013,08,17,16,29,12.40
2013,08,17,16,30,12.40
2013,08,17,16,34,12.30
2013,08,17,16,35,12.30
2013,08,17,16,36,12.30
2013,08,17,16,37,12.30
2013,08,17,16,38,12.30
2013,08,17,16,39,12.30
2013,08,17,16,40,12.30
2013,08,17,16,41,12.30
2013,08,17,16,42,12.30
2013,08,17,16,43,12.30
2013,08,17,16,44,12.30
2013,08,17,16,45,12.30
2013,08,17,16,49,11.90
2013,08,17,16,50,11.90
2013,08,17,16,51,11.90
2013,08,17,16,52,11.90
2013,08,17,16,53,11.90
2013,08,17,16,54,11.90
2013,08,17,16,55,11.90
2013,08,17,16,56,11.90
2013,08,17,16,57,11.90
2013,08,17,16,58,11.90
2013,08,17,16,59,11.90
2013,08,17,17,00,11.90
2013,08,17,17,04,11.70
2013,08,17,17,05,11.70
2013,08,17,17,06,11.70
2013,08,17,17,07,11.70
2013,08,17,17,08,11.70
2013,08,17,17,09,11.70
2013,08,17,17,10,11.70
2013,08,17,17,11,11.70
2013,08,17,17,12,11.70
2013,08,17,17,13,11.70
2013,08,17,17,14,11.70
2013,08,17,17,15,11.70
2013,08,17,17,19,11.40
2013,08,17,17,20,11.40
2013,08,17,17,21,11.40
2013,08,17,17,22,11.40
2013,08,17,17,23,11.40
2013,08,17,17,24,11.40
2013,08,17,17,25,11.40
2013,08,17,17,26,11.40
2013,08,17,17,27,11.40
2013,08,17,17,28,11.40
2013,08,17,17,29,11.40
2013,08,17,17,30,11.40
2013,08,17,17,34,11.30
2013,08,17,17,35,11.30
2013,08,17,17,36,11.30
2013,08,17,17,37,11.30
2013,08,17,17,38,11.30
2013,08,17,17,39,11.30
2013,08,17,17,40,11.30
2013,08,17,17,41,11.30
2013,08,17,17,42,11.30
2013,08,17,17,43,11.30
2013,08,17,17,44,11.30
2013,08,17,17,45,11.30
2013,08,17,17,49,11.20
2013,08,17,17,50,11.20
2013,08,17,17,51,11.20
2013,08,17,17,52,11.20
2013,08,17,17,53,11.20
2013,08,17,17,54,11.20
2013,08,17,17,55,11.20
2013,08,17,17,56,11.20
2013,08,17,17,57,11.20
2013,08,17,17,58,11.20
2013,08,17,17,59,11.20
2013,08,17,18,00,11.20
2013,08,17,18,04,11.10
2013,08,17,18,05,11.10
2013,08,17,18,06,11.10
2013,08,17,18,07,11.10
2013,08,17,18,08,11.10
2013,08,17,18,09,11.10
2013,08,17,18,10,11.10
2013,08,17,18,11,11.10
2013,08,17,18,12,11.10
2013,08,17,18,13,11.10
2013,08,17,18,14,11.10
2013,08,17,18,15,11.10
2013,08,17,18,19,10.80
2013,08,17,18,20,10.80
2013,08,17,18,21,10.80
2013,08,17,18,22,10.80
2013,08,17,18,23,10.80
2013,08,17,18,24,10.80
2013,08,17,18,25,10.80
2013,08,17,18,26,10.80
2013,08,17,18,27,10.80
2013,08,17,18,28,10.80
2013,08,17,18,29,10.80
2013,08,17,18,30,10.80
2013,08,17,18,34,10.80
2013,08,17,18,35,10.80
2013,08,17,18,36,10.80
2013,08,17,18,37,10.80
2013,08,17,18,38,10.80
2013,08,17,18,39,10.80
2013,08,17,18,40,10.80
2013,08,17,18,41,10.80
2013,08,17,18,42,10.80
2013,08,17,18,43,10.80
2013,08,17,18,44,10.80
2013,08,17,18,45,10.80
2013,08,17,18,49,10.70
2013,08,17,18,50,10.70
2013,08,17,18,51,10.70
2013,08,17,18,52,10.70
2013,08,17,18,53,10.70
2013,08,17,18,54,10.70
2013,08,17,18,55,10.70
2013,08,17,18,56,10.70
2013,08,17,18,57,10.70
2013,08,17,18,58,10.70
2013,08,17,18,59,10.70
2013,08,17,19,00,10.70
2013,08,17,19,04,10.30
2013,08,17,19,05,10.30
2013,08,17,19,06,10.30
2013,08,17,19,07,10.30
2013,08,17,19,08,10.30
2013,08,17,19,09,10.30
2013,08,17,19,10,10.30
2013,08,17,19,11,10.30
2013,08,17,19,12,10.30
2013,08,17,19,13,10.30
2013,08,17,19,14,10.30
2013,08,17,19,15,10.30
2013,08,17,19,19,10.30
2013,08,17,19,20,10.30
2013,08,17,19,21,10.30
2013,08,17,19,22,10.30
2013,08,17,19,23,10.30
2013,08,17,19,24,10.30
2013,08,17,19,25,10.30
2013,08,17,19,26,10.30
2013,08,17,19,27,10.30
2013,08,17,19,28,10.30
2013,08,17,19,29,10.30
2013,08,17,19,30,10.30
2013,08,17,19,34,10.20
2013,08,17,19,35,10.20
2013,08,17,19,36,10.20
2013,08,17,19,37,10.20
2013,08,17,19,38,10.20
2013,08,17,19,39,10.20
2013,08,17,19,40,10.20
2013,08,17,19,41,10.20
2013,08,17,19,42,10.20
2013,08,17,19,43,10.20
2013,08,17,19,44,10.20
2013,08,17,19,45,10.20
2013,08,17,19,49,9.90
2013,08,17,19,50,9.90
2013,08,17,19,51,9.90
2013,08,17,19,52,9.90
2013,08,17,19,53,9.90
2013,08,17,19,54,9.90
2013,08,17,19,55,9.90
2013,08,17,19,56,9.90
2013,08,17,19,57,9.90
2013,08,17,19,58,9.90
2013,08,17,19,59,9.90
2013,08,17,20,00,9.90
2013,08,17,20,04,9.70
2013,08,17,20,05,9.70
2013,08,17,20,06,9.70
2013,08,17,20,07,9.70
2013,08,17,20,08,9.70
2013,08,17,20,09,9.70
2013,08,17,20,10,9.70
2013,08,17,20,11,9.70
2013,08,17,20,12,9.70
2013,08,17,20,13,9.70
2013,08,17,20,14,9.70
2013,08,17,20,15,9.70
2013,08,17,20,19,9.80
2013,08,17,20,20,9.80
2013,08,17,20,21,9.80
2013,08,17,20,22,9.80
2013,08,17,20,23,9.80
2013,08,17,20,24,9.80
2013,08,17,20,25,9.80
2013,08,17,20,26,9.80
2013,08,17,20,27,9.80
2013,08,17,20,28,9.80
2013,08,17,20,29,9.80
2013,08,17,20,30,9.80
2013,08,17,20,34,9.70
2013,08,17,20,35,9.70
2013,08,17,20,36,9.70
2013,08,17,20,37,9.70
2013,08,17,20,38,9.70
2013,08,17,20,39,9.70
2013,08,17,20,40,9.70
2013,08,17,20,41,9.70
2013,08,17,20,42,9.70
2013,08,17,20,43,9.70
2013,08,17,20,44,9.70
2013,08,17,20,45,9.70
2013,08,17,20,49,9.70
2013,08,17,20,50,9.70
2013,08,17,20,51,9.70
2013,08,17,20,52,9.70
2013,08,17,20,53,9.70
2013,08,17,20,54,9.70
2013,08,17,20,55,9.70
2013,08,17,20,56,9.70
2013,08,17,20,57,9.70
2013,08,17,20,58,9.70
2013,08,17,20,59,9.70
2013,08,17,21,00,9.70
2013,08,17,21,04,9.70
2013,08,17,21,05,9.70
2013,08,17,21,06,9.70
2013,08,17,21,07,9.70
2013,08,17,21,08,9.70
2013,08,17,21,09,9.70
2013,08,17,21,10,9.70
2013,08,17,21,11,9.70
2013,08,17,21,12,9.70
2013,08,17,21,13,9.70
2013,08,17,21,14,9.70
2013,08,17,21,15,9.70
2013,08,17,21,19,9.70
2013,08,17,21,20,9.70
2013,08,17,21,21,9.70
2013,08,17,21,22,9.70
2013,08,17,21,23,9.70
2013,08,17,21,24,9.70
2013,08,17,21,25,9.70
2013,08,17,21,26,9.70
2013,08,17,21,27,9.70
2013,08,17,21,28,9.70
2013,08,17,21,29,9.70
2013,08,17,21,30,9.70
2013,08,17,21,34,9.70
2013,08,17,21,35,9.70
2013,08,17,21,36,9.70
2013,08,17,21,37,9.70
2013,08,17,21,38,9.70
2013,08,17,21,39,9.70
2013,08,17,21,40,9.70
2013,08,17,21,41,9.70
2013,08,17,21,42,9.70
2013,08,17,21,43,9.70
2013,08,17,21,44,9.70
2013,08,17,21,45,9.70
2013,08,17,21,49,9.50
2013,08,17,21,50,9.50
2013,08,17,21,51,9.50
2013,08,17,21,52,9.50
2013,08,17,21,53,9.50
2013,08,17,21,54,9.50
2013,08,17,21,55,9.50
2013,08,17,21,56,9.50
2013,08,17,21,57,9.50
2013,08,17,21,58,9.50
2013,08,17,21,59,9.50
2013,08,17,22,00,9.50
2013,08,17,22,04,9.30
2013,08,17,22,05,9.30
2013,08,17,22,06,9.30
2013,08,17,22,07,9.30
2013,08,17,22,08,9.30
2013,08,17,22,09,9.30